When you browse on this site, cookies collect data to enhance your experience and personalize the content and advertising you see.
Visit our Privacy Policy to learn more. By continuing to use the site, you agree to this use of cookies and data.
  • In Österreich
  • Länderverzeichnis
  • Für 7 Tage
  • Wassertemperatur
  • Satellitenkarten
  • Wetterkarte
  • News
  • Widgets
  • user-avatar
    Anmelden

    Stündliche Wetter Syracuse

    Heute, 19 Juli, Freitag

    Zeit Temperatur Niederschläge Wind Luftdruck Luftfeuchtigkeit
    00:00 +23°C° 0 mm 2 m/S 746 mmHg 94%
    01:00 +23°C° 0 mm 2 m/S 746 mmHg 95%
    02:00 +23°C° 0 mm 2 m/S 745 mmHg 95%
    03:00 +22°C° 0 mm 3 m/S 745 mmHg 94%
    04:00 +22°C° 0 mm 3 m/S 745 mmHg 93%
    05:00 +24°C° 0 mm 3 m/S 745 mmHg 91%
    06:00 +25°C° 0 mm 3 m/S 745 mmHg 88%
    07:00 +27°C° 0 mm 3 m/S 745 mmHg 87%
    08:00 +28°C° 0 mm 4 m/S 745 mmHg 84%
    09:00 +29°C° 0 mm 4 m/S 745 mmHg 80%
    10:00 +32°C° 0 mm 4 m/S 745 mmHg 76%
    11:00 +32°C° 0.1 mm 4 m/S 745 mmHg 75%
    12:00 +33°C° 0.1 mm 4 m/S 745 mmHg 75%
    13:00 +34°C° 0.1 mm 4 m/S 744 mmHg 74%
    14:00 +33°C° 0.8 mm 4 m/S 744 mmHg 78%
    15:00 +33°C° 0.8 mm 4 m/S 744 mmHg 81%
    16:00 +31°C° 0.8 mm 3 m/S 744 mmHg 85%
    17:00 +31°C° 0.8 mm 3 m/S 744 mmHg 86%
    18:00 +30°C° 0.8 mm 3 m/S 744 mmHg 87%
    19:00 +29°C° 0.8 mm 3 m/S 745 mmHg 88%
    20:00 +28°C° 1.1 mm 3 m/S 745 mmHg 90%
    21:00 +28°C° 1.1 mm 3 m/S 745 mmHg 91%
    22:00 +27°C° 1.1 mm 3 m/S 745 mmHg 93%
    23:00 +27°C° 0.2 mm 3 m/S 745 mmHg 93%

    Morgen, 20 Juli, Samstag

    Zeit Temperatur Niederschläge Wind Luftdruck Luftfeuchtigkeit
    00:00 +27°C° 0.2 mm 3 m/S 745 mmHg 93%
    01:00 +26°C° 0.2 mm 3 m/S 745 mmHg 93%
    02:00 +26°C° 0 mm 2 m/S 745 mmHg 93%
    03:00 +26°C° 0 mm 2 m/S 745 mmHg 93%
    04:00 +26°C° 0 mm 1 m/S 745 mmHg 93%
    05:00 +26°C° 0 mm 2 m/S 745 mmHg 92%
    06:00 +27°C° 0 mm 2 m/S 745 mmHg 92%
    07:00 +27°C° 0 mm 2 m/S 745 mmHg 91%
    08:00 +29°C° 0 mm 3 m/S 745 mmHg 87%
    09:00 +30°C° 0 mm 3 m/S 745 mmHg 83%
    10:00 +31°C° 0 mm 3 m/S 745 mmHg 78%
    11:00 +33°C° 0 mm 4 m/S 745 mmHg 76%
    12:00 +34°C° 0 mm 4 m/S 745 mmHg 74%
    13:00 +35°C° 0 mm 5 m/S 744 mmHg 71%
    14:00 +35°C° 0.7 mm 4 m/S 744 mmHg 74%
    15:00 +34°C° 0.7 mm 4 m/S 744 mmHg 78%
    16:00 +34°C° 0.7 mm 4 m/S 744 mmHg 81%
    17:00 +33°C° 0.3 mm 4 m/S 744 mmHg 83%
    18:00 +32°C° 0.3 mm 4 m/S 744 mmHg 84%
    19:00 +30°C° 0.3 mm 4 m/S 744 mmHg 86%
    20:00 +29°C° 0.4 mm 4 m/S 744 mmHg 88%
    21:00 +28°C° 0.4 mm 3 m/S 744 mmHg 90%
    22:00 +27°C° 0.4 mm 3 m/S 744 mmHg 91%
    23:00 +27°C° 0 mm 3 m/S 744 mmHg 92%

    übermorgen, 21 Juli, Sonntag

    Zeit Temperatur Niederschläge Wind Luftdruck Luftfeuchtigkeit
    00:00 +27°C° 0 mm 3 m/S 744 mmHg 93%
    01:00 +27°C° 0 mm 3 m/S 744 mmHg 94%
    02:00 +27°C° 0 mm 3 m/S 744 mmHg 95%
    03:00 +27°C° 0 mm 3 m/S 744 mmHg 95%
    04:00 +27°C° 0 mm 3 m/S 744 mmHg 96%
    05:00 +27°C° 0.1 mm 3 m/S 744 mmHg 95%
    06:00 +27°C° 0.1 mm 3 m/S 745 mmHg 94%
    07:00 +27°C° 0.1 mm 3 m/S 745 mmHg 93%
    08:00 +27°C° 0 mm 3 m/S 745 mmHg 85%
    09:00 +27°C° 0 mm 3 m/S 745 mmHg 78%
    10:00 +28°C° 0 mm 4 m/S 746 mmHg 71%
    11:00 +28°C° 0 mm 4 m/S 746 mmHg 67%
    12:00 +29°C° 0 mm 4 m/S 746 mmHg 63%
    13:00 +29°C° 0 mm 4 m/S 746 mmHg 59%
    14:00 +29°C° 0 mm 4 m/S 746 mmHg 60%
    15:00 +28°C° 0 mm 4 m/S 746 mmHg 60%
    16:00 +28°C° 0 mm 3 m/S 746 mmHg 60%
    17:00 +27°C° 0 mm 3 m/S 746 mmHg 66%
    18:00 +25°C° 0 mm 2 m/S 746 mmHg 72%
    19:00 +24°C° 0 mm 2 m/S 746 mmHg 78%
    20:00 +23°C° 0 mm 1 m/S 746 mmHg 78%
    21:00 +22°C° 0 mm 1 m/S 746 mmHg 79%
    22:00 +21°C° 0 mm 1 m/S 747 mmHg 80%
    23:00 +21°C° 0 mm 1 m/S 747 mmHg 81%

    22 Juli, Montag

    Zeit Temperatur Niederschläge Wind Luftdruck Luftfeuchtigkeit
    00:00 +21°C° 0 mm 1 m/S 747 mmHg 82%
    01:00 +20°C° 0 mm 1 m/S 747 mmHg 83%
    02:00 +20°C° 0 mm 1 m/S 746 mmHg 82%
    03:00 +20°C° 0 mm 1 m/S 746 mmHg 81%
    04:00 +20°C° 0 mm 1 m/S 746 mmHg 80%
    05:00 +21°C° 0 mm 1 m/S 746 mmHg 79%
    06:00 +21°C° 0 mm 1 m/S 746 mmHg 78%
    07:00 +22°C° 0 mm 1 m/S 746 mmHg 77%
    08:00 +23°C° 0 mm 1 m/S 746 mmHg 75%
    09:00 +24°C° 0 mm 1 m/S 746 mmHg 73%
    10:00 +25°C° 0 mm 1 m/S 746 mmHg 71%
    11:00 +24°C° 0.1 mm 1 m/S 745 mmHg 75%
    12:00 +23°C° 0.1 mm 2 m/S 745 mmHg 80%
    13:00 +23°C° 0.1 mm 2 m/S 745 mmHg 84%
    14:00 +20°C° 1.2 mm 3 m/S 744 mmHg 88%
    15:00 +19°C° 1.2 mm 3 m/S 744 mmHg 92%
    16:00 +17°C° 1.2 mm 3 m/S 743 mmHg 96%
    17:00 +17°C° 2.5 mm 3 m/S 743 mmHg 96%
    18:00 +17°C° 2.5 mm 2 m/S 743 mmHg 96%
    19:00 +18°C° 2.5 mm 1 m/S 743 mmHg 96%
    20:00 +17°C° 0.3 mm 2 m/S 743 mmHg 96%
    21:00 +17°C° 0.3 mm 2 m/S 742 mmHg 97%
    22:00 +17°C° 0.3 mm 2 m/S 742 mmHg 97%
    23:00 +17°C° 0.4 mm 2 m/S 742 mmHg 97%

    23 Juli, Dienstag

    Zeit Temperatur Niederschläge Wind Luftdruck Luftfeuchtigkeit
    00:00 +17°C° 0.4 mm 3 m/S 742 mmHg 97%
    01:00 +17°C° 0.4 mm 3 m/S 742 mmHg 97%
    02:00 +17°C° 0.1 mm 3 m/S 742 mmHg 97%
    03:00 +16°C° 0.1 mm 3 m/S 742 mmHg 96%
    04:00 +15°C° 0.1 mm 4 m/S 742 mmHg 96%
    05:00 +15°C° 0.1 mm 4 m/S 742 mmHg 95%
    06:00 +15°C° 0.1 mm 4 m/S 743 mmHg 94%
    07:00 +15°C° 0.1 mm 4 m/S 743 mmHg 93%
    08:00 +18°C° 0 mm 4 m/S 744 mmHg 88%
    09:00 +19°C° 0 mm 4 m/S 744 mmHg 82%
    10:00 +20°C° 0 mm 4 m/S 745 mmHg 77%
    11:00 +21°C° 0.2 mm 4 m/S 745 mmHg 74%
    12:00 +22°C° 0.2 mm 4 m/S 745 mmHg 72%
    13:00 +24°C° 0.2 mm 3 m/S 745 mmHg 70%
    14:00 +22°C° 0.3 mm 4 m/S 745 mmHg 71%
    15:00 +22°C° 0.3 mm 4 m/S 745 mmHg 71%
    16:00 +22°C° 0.3 mm 4 m/S 745 mmHg 72%
    17:00 +21°C° 0 mm 4 m/S 745 mmHg 75%
    18:00 +20°C° 0 mm 3 m/S 746 mmHg 78%
    19:00 +19°C° 0 mm 3 m/S 746 mmHg 81%
    20:00 +17°C° 0 mm 3 m/S 747 mmHg 80%
    21:00 +16°C° 0 mm 3 m/S 747 mmHg 80%
    22:00 +15°C° 0 mm 2 m/S 748 mmHg 79%
    23:00 +14°C° 0 mm 3 m/S 748 mmHg 81%

    24 Juli, Mittwoch

    Zeit Temperatur Niederschläge Wind Luftdruck Luftfeuchtigkeit
    00:00 +13°C° 0 mm 3 m/S 748 mmHg 83%
    01:00 +13°C° 0 mm 3 m/S 748 mmHg 85%
    02:00 +13°C° 0 mm 2 m/S 749 mmHg 86%
    03:00 +12°C° 0 mm 2 m/S 749 mmHg 88%
    04:00 +12°C° 0 mm 1 m/S 749 mmHg 90%
    05:00 +13°C° 0 mm 1 m/S 750 mmHg 86%
    06:00 +14°C° 0 mm 1 m/S 750 mmHg 82%
    07:00 +15°C° 0 mm 1 m/S 751 mmHg 78%
    08:00 +18°C° 0 mm 1 m/S 751 mmHg 71%
    09:00 +19°C° 0 mm 1 m/S 751 mmHg 64%
    10:00 +20°C° 0 mm 2 m/S 751 mmHg 57%
    11:00 +21°C° 0 mm 2 m/S 751 mmHg 56%
    12:00 +23°C° 0 mm 2 m/S 751 mmHg 54%
    13:00 +24°C° 0 mm 2 m/S 751 mmHg 52%
    14:00 +24°C° 0 mm 2 m/S 750 mmHg 54%
    15:00 +24°C° 0 mm 2 m/S 750 mmHg 56%
    16:00 +24°C° 0 mm 2 m/S 750 mmHg 57%
    17:00 +23°C° 0 mm 2 m/S 750 mmHg 63%
    18:00 +21°C° 0 mm 2 m/S 750 mmHg 69%
    19:00 +21°C° 0 mm 1 m/S 750 mmHg 75%
    20:00 +19°C° 0 mm 2 m/S 750 mmHg 75%
    21:00 +18°C° 0 mm 2 m/S 751 mmHg 76%
    22:00 +17°C° 0 mm 2 m/S 751 mmHg 76%
    23:00 +16°C° 0 mm 2 m/S 751 mmHg 79%
    Mehr zeigen